Location: Fort Worth, Tx
(32.7431°N, 97.3695°W)
Time: 06:29:38
(UTC-04:00)

Vanguard 1 Rocket - Pass Details

Date: 25 February 2024
Orbit: 652 x 4219 km, 34.3° (Epoch: 22 April)

Event Time Altitude Azimuth Distance (km) Brightness Sun altitude
Rises 05:45:06 0° 206° (SSW) 8,390 12.0 -29.6°
Reaches altitude 10° 05:52:06 10° 198° (SSW) 7,415 11.8 -28.1°
Maximum altitude 06:12:52 33° 144° (SE) 4,971 11.3 -23.8°
Drops below altitude 10° 06:27:32 10° 88° (E) 5,371 12.5 -20.7°
Sets 06:31:26 0° 79° (E) 5,935 13.1 -19.9°
